#datetime,building,power
2022-11-12T00:00:00,axn,32.94
2022-11-12T00:01:00,axn,33.00
2022-11-12T00:02:00,axn,32.73
2022-11-12T00:03:00,axn,32.88
2022-11-12T00:04:00,axn,33.49
2022-11-12T00:05:00,axn,33.63
2022-11-12T00:06:00,axn,33.01
2022-11-12T00:07:00,axn,32.46
2022-11-12T00:08:00,axn,32.50
2022-11-12T00:09:00,axn,32.51
2022-11-12T00:10:00,axn,32.77
2022-11-12T00:11:00,axn,32.83
2022-11-12T00:12:00,axn,32.54
2022-11-12T00:13:00,axn,32.45
2022-11-12T00:14:00,axn,32.72
2022-11-12T00:15:00,axn,32.97
2022-11-12T00:16:00,axn,33.61
2022-11-12T00:17:00,axn,33.16
2022-11-12T00:18:00,axn,32.52
2022-11-12T00:19:00,axn,32.33
2022-11-12T00:20:00,axn,32.54
2022-11-12T00:21:00,axn,32.49
2022-11-12T00:22:00,axn,32.52
2022-11-12T00:23:00,axn,31.83
2022-11-12T00:24:00,axn,31.79
2022-11-12T00:25:00,axn,32.01
2022-11-12T00:26:00,axn,31.96
2022-11-12T00:27:00,axn,32.08
2022-11-12T00:28:00,axn,32.59
2022-11-12T00:29:00,axn,32.86
2022-11-12T00:30:00,axn,32.32
2022-11-12T00:31:00,axn,32.39
2022-11-12T00:32:00,axn,32.21
2022-11-12T00:33:00,axn,32.40
2022-11-12T00:34:00,axn,32.39
2022-11-12T00:35:00,axn,32.00
2022-11-12T00:36:00,axn,32.33
2022-11-12T00:37:00,axn,31.89
2022-11-12T00:38:00,axn,32.03
2022-11-12T00:39:00,axn,32.14
2022-11-12T00:40:00,axn,32.79
2022-11-12T00:41:00,axn,32.80
2022-11-12T00:42:00,axn,32.99
2022-11-12T00:43:00,axn,31.86
2022-11-12T00:44:00,axn,32.58
2022-11-12T00:45:00,axn,32.26
2022-11-12T00:46:00,axn,31.88
2022-11-12T00:47:00,axn,31.92
2022-11-12T00:48:00,axn,31.95
2022-11-12T00:49:00,axn,31.58
2022-11-12T00:50:00,axn,32.02
2022-11-12T00:51:00,axn,32.12
2022-11-12T00:52:00,axn,32.65
2022-11-12T00:53:00,axn,33.07
2022-11-12T00:54:00,axn,32.72
2022-11-12T00:55:00,axn,32.32
2022-11-12T00:56:00,axn,32.65
2022-11-12T00:57:00,axn,32.02
2022-11-12T00:58:00,axn,31.46
2022-11-12T00:59:00,axn,31.80
2022-11-12T01:00:00,axn,31.61
2022-11-12T01:01:00,axn,32.15
2022-11-12T01:02:00,axn,32.01
2022-11-12T01:03:00,axn,31.98
2022-11-12T01:04:00,axn,32.76
2022-11-12T01:05:00,axn,32.58
2022-11-12T01:06:00,axn,32.44
2022-11-12T01:07:00,axn,31.73
2022-11-12T01:08:00,axn,32.63
2022-11-12T01:09:00,axn,32.73
2022-11-12T01:10:00,axn,32.30
2022-11-12T01:11:00,axn,32.29
2022-11-12T01:12:00,axn,32.06
2022-11-12T01:13:00,axn,32.11
2022-11-12T01:14:00,axn,32.03
2022-11-12T01:15:00,axn,32.34
2022-11-12T01:16:00,axn,33.01
2022-11-12T01:17:00,axn,33.53
2022-11-12T01:18:00,axn,34.19
2022-11-12T01:19:00,axn,33.73
2022-11-12T01:20:00,axn,34.33
2022-11-12T01:21:00,axn,34.08
2022-11-12T01:22:00,axn,34.27
2022-11-12T01:23:00,axn,33.97
2022-11-12T01:24:00,axn,33.98
2022-11-12T01:25:00,axn,33.98
2022-11-12T01:26:00,axn,33.95
2022-11-12T01:27:00,axn,33.91
2022-11-12T01:28:00,axn,34.59
2022-11-12T01:29:00,axn,34.32
2022-11-12T01:30:00,axn,34.18
2022-11-12T01:31:00,axn,33.62
2022-11-12T01:32:00,axn,34.33
2022-11-12T01:33:00,axn,33.85
2022-11-12T01:34:00,axn,33.46
2022-11-12T01:35:00,axn,34.14
2022-11-12T01:36:00,axn,33.68
2022-11-12T01:37:00,axn,33.58
2022-11-12T01:38:00,axn,33.79
2022-11-12T01:39:00,axn,33.83
2022-11-12T01:40:00,axn,34.65
2022-11-12T01:41:00,axn,34.55
2022-11-12T01:42:00,axn,34.09
2022-11-12T01:43:00,axn,33.67
2022-11-12T01:44:00,axn,33.98
2022-11-12T01:45:00,axn,33.86
2022-11-12T01:46:00,axn,33.71
2022-11-12T01:47:00,axn,33.69
2022-11-12T01:48:00,axn,33.70
2022-11-12T01:49:00,axn,33.69
2022-11-12T01:50:00,axn,33.97
2022-11-12T01:51:00,axn,33.78
2022-11-12T01:52:00,axn,34.68
2022-11-12T01:53:00,axn,34.60
2022-11-12T01:54:00,axn,34.26
2022-11-12T01:55:00,axn,39.87
2022-11-12T01:56:00,axn,40.18
2022-11-12T01:57:00,axn,40.31
2022-11-12T01:58:00,axn,34.03
2022-11-12T01:59:00,axn,33.66
2022-11-12T02:00:00,axn,33.69
2022-11-12T02:01:00,axn,33.72
2022-11-12T02:02:00,axn,33.83
2022-11-12T02:03:00,axn,34.04
2022-11-12T02:04:00,axn,34.20
2022-11-12T02:05:00,axn,34.60
2022-11-12T02:06:00,axn,34.01
2022-11-12T02:07:00,axn,33.55
2022-11-12T02:08:00,axn,33.73
2022-11-12T02:09:00,axn,33.81
2022-11-12T02:10:00,axn,33.53
2022-11-12T02:11:00,axn,33.36
2022-11-12T02:12:00,axn,33.71
2022-11-12T02:13:00,axn,33.42
2022-11-12T02:14:00,axn,48.02
2022-11-12T02:15:00,axn,48.02
2022-11-12T02:16:00,axn,48.12
2022-11-12T02:17:00,axn,48.06
2022-11-12T02:18:00,axn,36.76
2022-11-12T02:19:00,axn,33.48
2022-11-12T02:20:00,axn,33.62
2022-11-12T02:21:00,axn,33.66
2022-11-12T02:22:00,axn,33.78
2022-11-12T02:23:00,axn,33.40
2022-11-12T02:24:00,axn,31.58
2022-11-12T02:25:00,axn,31.20
2022-11-12T02:26:00,axn,31.41
2022-11-12T02:27:00,axn,31.30
2022-11-12T02:28:00,axn,32.29
2022-11-12T02:29:00,axn,31.98
2022-11-12T02:30:00,axn,31.67
2022-11-12T02:31:00,axn,31.27
2022-11-12T02:32:00,axn,31.51
2022-11-12T02:33:00,axn,31.39
2022-11-12T02:34:00,axn,31.18
2022-11-12T02:35:00,axn,31.14
2022-11-12T02:36:00,axn,31.63
2022-11-12T02:37:00,axn,31.15
2022-11-12T02:38:00,axn,31.41
2022-11-12T02:39:00,axn,32.05
2022-11-12T02:40:00,axn,32.42
2022-11-12T02:41:00,axn,32.58
2022-11-12T02:42:00,axn,35.05
2022-11-12T02:43:00,axn,35.26
2022-11-12T02:44:00,axn,35.38
2022-11-12T02:45:00,axn,32.11
2022-11-12T02:46:00,axn,31.76
2022-11-12T02:47:00,axn,31.89
2022-11-12T02:48:00,axn,31.32
2022-11-12T02:49:00,axn,31.36
2022-11-12T02:50:00,axn,31.40
2022-11-12T02:51:00,axn,31.33
2022-11-12T02:52:00,axn,32.02
2022-11-12T02:53:00,axn,32.11
2022-11-12T02:54:00,axn,31.69
2022-11-12T02:55:00,axn,29.86
2022-11-12T02:56:00,axn,28.05
2022-11-12T02:57:00,axn,26.85
2022-11-12T02:58:00,axn,26.95
2022-11-12T02:59:00,axn,27.07
2022-11-12T03:00:00,axn,27.33
2022-11-12T03:01:00,axn,26.78
2022-11-12T03:02:00,axn,26.88
2022-11-12T03:03:00,axn,27.08
2022-11-12T03:04:00,axn,26.82
2022-11-12T03:05:00,axn,26.79
2022-11-12T03:06:00,axn,26.89
2022-11-12T03:07:00,axn,26.97
2022-11-12T03:08:00,axn,26.89
2022-11-12T03:09:00,axn,26.97
2022-11-12T03:10:00,axn,26.76
2022-11-12T03:11:00,axn,26.88
2022-11-12T03:12:00,axn,26.86
2022-11-12T03:13:00,axn,27.18
2022-11-12T03:14:00,axn,26.79
2022-11-12T03:15:00,axn,27.00
2022-11-12T03:16:00,axn,27.16
2022-11-12T03:17:00,axn,26.97
2022-11-12T03:18:00,axn,27.09
2022-11-12T03:19:00,axn,27.53
2022-11-12T03:20:00,axn,27.06
2022-11-12T03:21:00,axn,27.31
2022-11-12T03:22:00,axn,27.23
2022-11-12T03:23:00,axn,27.02
2022-11-12T03:24:00,axn,27.11
2022-11-12T03:25:00,axn,27.05
2022-11-12T03:26:00,axn,27.06
2022-11-12T03:27:00,axn,27.17
2022-11-12T03:28:00,axn,27.26
2022-11-12T03:29:00,axn,27.34
2022-11-12T03:30:00,axn,26.97
2022-11-12T03:31:00,axn,27.10
2022-11-12T03:32:00,axn,27.03
2022-11-12T03:33:00,axn,27.13
2022-11-12T03:34:00,axn,27.21
2022-11-12T03:35:00,axn,27.14
2022-11-12T03:36:00,axn,27.14
2022-11-12T03:37:00,axn,27.38
2022-11-12T03:38:00,axn,27.35
2022-11-12T03:39:00,axn,26.90
2022-11-12T03:40:00,axn,27.23
2022-11-12T03:41:00,axn,27.06
2022-11-12T03:42:00,axn,27.02
2022-11-12T03:43:00,axn,27.14
2022-11-12T03:44:00,axn,27.13
2022-11-12T03:45:00,axn,27.31
2022-11-12T03:46:00,axn,27.18
2022-11-12T03:47:00,axn,27.06
2022-11-12T03:48:00,axn,26.92
2022-11-12T03:49:00,axn,26.98
2022-11-12T03:50:00,axn,26.80
2022-11-12T03:51:00,axn,26.99
2022-11-12T03:52:00,axn,26.75
2022-11-12T03:53:00,axn,26.71
2022-11-12T03:54:00,axn,26.81
2022-11-12T03:55:00,axn,26.91
2022-11-12T03:56:00,axn,26.75
2022-11-12T03:57:00,axn,26.51
2022-11-12T03:58:00,axn,26.66
2022-11-12T03:59:00,axn,26.81
2022-11-12T04:00:00,axn,26.79
2022-11-12T04:01:00,axn,26.86
2022-11-12T04:02:00,axn,26.81
2022-11-12T04:03:00,axn,26.81
2022-11-12T04:04:00,axn,26.89
2022-11-12T04:05:00,axn,26.98
2022-11-12T04:06:00,axn,26.92
2022-11-12T04:07:00,axn,26.81
2022-11-12T04:08:00,axn,26.89
2022-11-12T04:09:00,axn,26.92
2022-11-12T04:10:00,axn,27.01
2022-11-12T04:11:00,axn,31.68
2022-11-12T04:12:00,axn,31.63
2022-11-12T04:13:00,axn,31.58
2022-11-12T04:14:00,axn,27.02
2022-11-12T04:15:00,axn,26.89
2022-11-12T04:16:00,axn,26.89
2022-11-12T04:17:00,axn,27.36
2022-11-12T04:18:00,axn,27.21
2022-11-12T04:19:00,axn,27.16
2022-11-12T04:20:00,axn,27.05
2022-11-12T04:21:00,axn,26.74
2022-11-12T04:22:00,axn,26.73
2022-11-12T04:23:00,axn,26.76
2022-11-12T04:24:00,axn,26.19
2022-11-12T04:25:00,axn,26.23
2022-11-12T04:26:00,axn,26.21
2022-11-12T04:27:00,axn,26.58
2022-11-12T04:28:00,axn,26.25
2022-11-12T04:29:00,axn,36.70
2022-11-12T04:30:00,axn,36.48
2022-11-12T04:31:00,axn,36.54
2022-11-12T04:32:00,axn,37.00
2022-11-12T04:33:00,axn,36.38
2022-11-12T04:34:00,axn,26.12
2022-11-12T04:35:00,axn,26.09
2022-11-12T04:36:00,axn,26.05
2022-11-12T04:37:00,axn,26.24
2022-11-12T04:38:00,axn,26.06
2022-11-12T04:39:00,axn,26.00
2022-11-12T04:40:00,axn,25.98
2022-11-12T04:41:00,axn,25.95
2022-11-12T04:42:00,axn,25.93
2022-11-12T04:43:00,axn,25.90
2022-11-12T04:44:00,axn,26.09
2022-11-12T04:45:00,axn,26.02
2022-11-12T04:46:00,axn,26.46
2022-11-12T04:47:00,axn,26.15
2022-11-12T04:48:00,axn,26.22
2022-11-12T04:49:00,axn,26.26
2022-11-12T04:50:00,axn,26.70
2022-11-12T04:51:00,axn,26.36
2022-11-12T04:52:00,axn,26.35
2022-11-12T04:53:00,axn,26.14
2022-11-12T04:54:00,axn,27.21
2022-11-12T04:55:00,axn,26.58
2022-11-12T04:56:00,axn,26.44
2022-11-12T04:57:00,axn,26.44
2022-11-12T04:58:00,axn,26.36
2022-11-12T04:59:00,axn,26.63
2022-11-12T05:00:00,axn,26.42
2022-11-12T05:01:00,axn,26.18
2022-11-12T05:02:00,axn,26.16
2022-11-12T05:03:00,axn,26.00
2022-11-12T05:04:00,axn,26.13
2022-11-12T05:05:00,axn,25.89
2022-11-12T05:06:00,axn,25.62
2022-11-12T05:07:00,axn,25.54
2022-11-12T05:08:00,axn,25.64
2022-11-12T05:09:00,axn,25.74
2022-11-12T05:10:00,axn,25.69
2022-11-12T05:11:00,axn,28.59
2022-11-12T05:12:00,axn,28.92
2022-11-12T05:13:00,axn,25.75
2022-11-12T05:14:00,axn,25.69
2022-11-12T05:15:00,axn,26.13
2022-11-12T05:16:00,axn,25.74
2022-11-12T05:17:00,axn,25.64
2022-11-12T05:18:00,axn,25.96
2022-11-12T05:19:00,axn,25.63
2022-11-12T05:20:00,axn,25.58
2022-11-12T05:21:00,axn,25.52
2022-11-12T05:22:00,axn,25.61
2022-11-12T05:23:00,axn,25.98
2022-11-12T05:24:00,axn,25.51
2022-11-12T05:25:00,axn,25.42
2022-11-12T05:26:00,axn,25.49
2022-11-12T05:27:00,axn,25.52
2022-11-12T05:28:00,axn,25.66
2022-11-12T05:29:00,axn,25.60
2022-11-12T05:30:00,axn,25.60
2022-11-12T05:31:00,axn,25.53
2022-11-12T05:32:00,axn,25.79
2022-11-12T05:33:00,axn,25.80
2022-11-12T05:34:00,axn,26.01
2022-11-12T05:35:00,axn,25.63
2022-11-12T05:36:00,axn,25.74
2022-11-12T05:37:00,axn,25.74
2022-11-12T05:38:00,axn,25.62
2022-11-12T05:39:00,axn,26.13
2022-11-12T05:40:00,axn,25.93
2022-11-12T05:41:00,axn,26.23
2022-11-12T05:42:00,axn,26.28
2022-11-12T05:43:00,axn,26.28
2022-11-12T05:44:00,axn,26.30
2022-11-12T05:45:00,axn,26.22
2022-11-12T05:46:00,axn,26.13
2022-11-12T05:47:00,axn,26.05
2022-11-12T05:48:00,axn,26.35
2022-11-12T05:49:00,axn,25.95
2022-11-12T05:50:00,axn,26.14
2022-11-12T05:51:00,axn,26.00
2022-11-12T05:52:00,axn,26.00
2022-11-12T05:53:00,axn,26.10
2022-11-12T05:54:00,axn,26.73
2022-11-12T05:55:00,axn,26.27
2022-11-12T05:56:00,axn,26.28
2022-11-12T05:57:00,axn,26.44
2022-11-12T05:58:00,axn,26.46
2022-11-12T05:59:00,axn,26.84
2022-11-12T06:00:00,axn,26.26
2022-11-12T06:01:00,axn,26.95
2022-11-12T06:02:00,axn,26.53
2022-11-12T06:03:00,axn,26.38
2022-11-12T06:04:00,axn,26.88
2022-11-12T06:05:00,axn,26.55
2022-11-12T06:06:00,axn,26.45
2022-11-12T06:07:00,axn,26.38
2022-11-12T06:08:00,axn,26.41
2022-11-12T06:09:00,axn,26.17
2022-11-12T06:10:00,axn,26.21
2022-11-12T06:11:00,axn,26.13
2022-11-12T06:12:00,axn,25.84
2022-11-12T06:13:00,axn,25.96
2022-11-12T06:14:00,axn,25.89
2022-11-12T06:15:00,axn,28.41
2022-11-12T06:16:00,axn,28.19
2022-11-12T06:17:00,axn,27.91
2022-11-12T06:18:00,axn,24.90
2022-11-12T06:19:00,axn,24.64
2022-11-12T06:20:00,axn,24.71
2022-11-12T06:21:00,axn,24.70
2022-11-12T06:22:00,axn,25.14
2022-11-12T06:23:00,axn,24.84
2022-11-12T06:24:00,axn,24.95
2022-11-12T06:25:00,axn,24.84
2022-11-12T06:26:00,axn,24.83
2022-11-12T06:27:00,axn,24.92
2022-11-12T06:28:00,axn,24.63
2022-11-12T06:29:00,axn,24.59
2022-11-12T06:30:00,axn,24.59
2022-11-12T06:31:00,axn,24.40
2022-11-12T06:32:00,axn,24.82
2022-11-12T06:33:00,axn,24.72
2022-11-12T06:34:00,axn,24.82
2022-11-12T06:35:00,axn,24.87
2022-11-12T06:36:00,axn,24.98
2022-11-12T06:37:00,axn,25.03
2022-11-12T06:38:00,axn,25.13
2022-11-12T06:39:00,axn,25.25
2022-11-12T06:40:00,axn,25.18
2022-11-12T06:41:00,axn,25.29
2022-11-12T06:42:00,axn,25.19
2022-11-12T06:43:00,axn,25.08
2022-11-12T06:44:00,axn,25.12
2022-11-12T06:45:00,axn,24.98
2022-11-12T06:46:00,axn,24.95
2022-11-12T06:47:00,axn,24.88
2022-11-12T06:48:00,axn,24.99
2022-11-12T06:49:00,axn,24.90
2022-11-12T06:50:00,axn,24.65
2022-11-12T06:51:00,axn,24.54
2022-11-12T06:52:00,axn,24.76
2022-11-12T06:53:00,axn,24.58
2022-11-12T06:54:00,axn,24.69
2022-11-12T06:55:00,axn,24.69
2022-11-12T06:56:00,axn,24.29
2022-11-12T06:57:00,axn,24.36
2022-11-12T06:58:00,axn,24.29
2022-11-12T06:59:00,axn,24.52
2022-11-12T07:00:00,axn,24.37
2022-11-12T07:01:00,axn,30.10
2022-11-12T07:02:00,axn,32.80
2022-11-12T07:03:00,axn,30.84
2022-11-12T07:04:00,axn,32.17
2022-11-12T07:05:00,axn,32.59
2022-11-12T07:06:00,axn,32.43
2022-11-12T07:07:00,axn,32.41
2022-11-12T07:08:00,axn,32.66
2022-11-12T07:09:00,axn,32.84
2022-11-12T07:10:00,axn,32.13
2022-11-12T07:11:00,axn,31.93
2022-11-12T07:12:00,axn,32.01
2022-11-12T07:13:00,axn,32.05
2022-11-12T07:14:00,axn,31.93
2022-11-12T07:15:00,axn,31.88
2022-11-12T07:16:00,axn,31.82
2022-11-12T07:17:00,axn,31.91
2022-11-12T07:18:00,axn,31.99
2022-11-12T07:19:00,axn,31.90
2022-11-12T07:20:00,axn,32.29
2022-11-12T07:21:00,axn,32.46
2022-11-12T07:22:00,axn,31.56
2022-11-12T07:23:00,axn,31.56
2022-11-12T07:24:00,axn,31.49
2022-11-12T07:25:00,axn,31.43
2022-11-12T07:26:00,axn,31.32
2022-11-12T07:27:00,axn,31.60
2022-11-12T07:28:00,axn,31.35
2022-11-12T07:29:00,axn,31.35
2022-11-12T07:30:00,axn,31.41
2022-11-12T07:31:00,axn,31.48
2022-11-12T07:32:00,axn,31.52
2022-11-12T07:33:00,axn,31.62
2022-11-12T07:34:00,axn,31.11
2022-11-12T07:35:00,axn,31.08
2022-11-12T07:36:00,axn,31.06
2022-11-12T07:37:00,axn,31.13
2022-11-12T07:38:00,axn,31.18
2022-11-12T07:39:00,axn,31.01
2022-11-12T07:40:00,axn,31.06
2022-11-12T07:41:00,axn,31.11
2022-11-12T07:42:00,axn,30.83
2022-11-12T07:43:00,axn,31.50
2022-11-12T07:44:00,axn,31.63
2022-11-12T07:45:00,axn,32.14
2022-11-12T07:46:00,axn,31.43
2022-11-12T07:47:00,axn,31.37
2022-11-12T07:48:00,axn,31.25
2022-11-12T07:49:00,axn,31.37
2022-11-12T07:50:00,axn,31.41
2022-11-12T07:51:00,axn,31.46
2022-11-12T07:52:00,axn,31.45
2022-11-12T07:53:00,axn,31.55
2022-11-12T07:54:00,axn,32.00
2022-11-12T07:55:00,axn,31.63
2022-11-12T07:56:00,axn,31.67
2022-11-12T07:57:00,axn,31.59
2022-11-12T07:58:00,axn,31.16
2022-11-12T07:59:00,axn,46.54
2022-11-12T08:00:00,axn,31.00
2022-11-12T08:01:00,axn,31.13
2022-11-12T08:02:00,axn,31.00
2022-11-12T08:03:00,axn,31.09
2022-11-12T08:04:00,axn,30.97
2022-11-12T08:05:00,axn,31.12
2022-11-12T08:06:00,axn,31.31
2022-11-12T08:07:00,axn,34.14
2022-11-12T08:08:00,axn,34.05
2022-11-12T08:09:00,axn,31.54
2022-11-12T08:10:00,axn,31.11
2022-11-12T08:11:00,axn,30.87
2022-11-12T08:12:00,axn,30.89
2022-11-12T08:13:00,axn,30.94
2022-11-12T08:14:00,axn,31.00
2022-11-12T08:15:00,axn,30.99
2022-11-12T08:16:00,axn,31.27
2022-11-12T08:17:00,axn,31.36
2022-11-12T08:18:00,axn,31.54
2022-11-12T08:19:00,axn,31.51
2022-11-12T08:20:00,axn,31.43
2022-11-12T08:21:00,axn,31.37
2022-11-12T08:22:00,axn,31.39
2022-11-12T08:23:00,axn,31.16
2022-11-12T08:24:00,axn,31.20
2022-11-12T08:25:00,axn,31.18
2022-11-12T08:26:00,axn,31.13
2022-11-12T08:27:00,axn,31.46
2022-11-12T08:28:00,axn,31.16
2022-11-12T08:29:00,axn,31.70
2022-11-12T08:30:00,axn,31.60
2022-11-12T08:31:00,axn,32.08
2022-11-12T08:32:00,axn,31.81
2022-11-12T08:33:00,axn,31.88
2022-11-12T08:34:00,axn,31.51
2022-11-12T08:35:00,axn,31.80
2022-11-12T08:36:00,axn,31.88
2022-11-12T08:37:00,axn,31.69
2022-11-12T08:38:00,axn,31.74
2022-11-12T08:39:00,axn,31.66
2022-11-12T08:40:00,axn,31.53
2022-11-12T08:41:00,axn,31.40
2022-11-12T08:42:00,axn,31.71
2022-11-12T08:43:00,axn,54.17
2022-11-12T08:44:00,axn,31.85
2022-11-12T08:45:00,axn,32.09
2022-11-12T08:46:00,axn,31.98
2022-11-12T08:47:00,axn,31.83
2022-11-12T08:48:00,axn,32.17
2022-11-12T08:49:00,axn,31.85
2022-11-12T08:50:00,axn,32.20
2022-11-12T08:51:00,axn,32.00
2022-11-12T08:52:00,axn,31.82
2022-11-12T08:53:00,axn,31.91
2022-11-12T08:54:00,axn,31.84
2022-11-12T08:55:00,axn,32.15
2022-11-12T08:56:00,axn,31.83
2022-11-12T08:57:00,axn,31.81
2022-11-12T08:58:00,axn,31.52
2022-11-12T08:59:00,axn,31.52
2022-11-12T09:00:00,axn,31.49
2022-11-12T09:01:00,axn,31.34
2022-11-12T09:02:00,axn,31.61
2022-11-12T09:03:00,axn,31.67
2022-11-12T09:04:00,axn,31.68
2022-11-12T09:05:00,axn,31.74
2022-11-12T09:06:00,axn,45.89
2022-11-12T09:07:00,axn,45.77
2022-11-12T09:08:00,axn,45.65
2022-11-12T09:09:00,axn,45.52
2022-11-12T09:10:00,axn,45.14
2022-11-12T09:11:00,axn,31.75
2022-11-12T09:12:00,axn,31.18
2022-11-12T09:13:00,axn,31.35
2022-11-12T09:14:00,axn,31.37
2022-11-12T09:15:00,axn,31.19
2022-11-12T09:16:00,axn,31.23
2022-11-12T09:17:00,axn,31.29
2022-11-12T09:18:00,axn,31.55
2022-11-12T09:19:00,axn,41.50
2022-11-12T09:20:00,axn,41.37
2022-11-12T09:21:00,axn,41.36
2022-11-12T09:22:00,axn,42.01
2022-11-12T09:23:00,axn,31.31
2022-11-12T09:24:00,axn,31.15
2022-11-12T09:25:00,axn,31.19
2022-11-12T09:26:00,axn,31.52
2022-11-12T09:27:00,axn,31.47
2022-11-12T09:28:00,axn,31.29
2022-11-12T09:29:00,axn,31.45
2022-11-12T09:30:00,axn,31.81
2022-11-12T09:31:00,axn,31.61
2022-11-12T09:32:00,axn,31.50
2022-11-12T09:33:00,axn,31.72
2022-11-12T09:34:00,axn,31.40
2022-11-12T09:35:00,axn,31.20
2022-11-12T09:36:00,axn,31.24
2022-11-12T09:37:00,axn,31.65
2022-11-12T09:38:00,axn,31.30
2022-11-12T09:39:00,axn,31.63
2022-11-12T09:40:00,axn,31.38
2022-11-12T09:41:00,axn,31.35
2022-11-12T09:42:00,axn,31.44
2022-11-12T09:43:00,axn,31.41
2022-11-12T09:44:00,axn,31.37
2022-11-12T09:45:00,axn,46.59
2022-11-12T09:46:00,axn,36.44
2022-11-12T09:47:00,axn,30.97
2022-11-12T09:48:00,axn,31.16
2022-11-12T09:49:00,axn,31.61
2022-11-12T09:50:00,axn,31.24
2022-11-12T09:51:00,axn,31.19
2022-11-12T09:52:00,axn,33.82
2022-11-12T09:53:00,axn,34.18
2022-11-12T09:54:00,axn,33.62
2022-11-12T09:55:00,axn,33.47
2022-11-12T09:56:00,axn,31.57
2022-11-12T09:57:00,axn,31.53
2022-11-12T09:58:00,axn,31.28
2022-11-12T09:59:00,axn,31.24
2022-11-12T10:00:00,axn,31.27
2022-11-12T10:01:00,axn,42.02
2022-11-12T10:02:00,axn,31.62
2022-11-12T10:03:00,axn,31.48
2022-11-12T10:04:00,axn,31.37
2022-11-12T10:05:00,axn,31.41
2022-11-12T10:06:00,axn,31.58
2022-11-12T10:07:00,axn,31.58
2022-11-12T10:08:00,axn,31.67
2022-11-12T10:09:00,axn,31.69
2022-11-12T10:10:00,axn,31.64
2022-11-12T10:11:00,axn,31.59
2022-11-12T10:12:00,axn,31.53
2022-11-12T10:13:00,axn,31.51
2022-11-12T10:14:00,axn,31.36
2022-11-12T10:15:00,axn,31.39
2022-11-12T10:16:00,axn,31.59
2022-11-12T10:17:00,axn,31.45
2022-11-12T10:18:00,axn,31.56
2022-11-12T10:19:00,axn,31.67
2022-11-12T10:20:00,axn,31.62
2022-11-12T10:21:00,axn,31.62
2022-11-12T10:22:00,axn,31.60
2022-11-12T10:23:00,axn,31.80
2022-11-12T10:24:00,axn,31.75
2022-11-12T10:25:00,axn,32.14
2022-11-12T10:26:00,axn,31.66
2022-11-12T10:27:00,axn,37.53
2022-11-12T10:28:00,axn,37.80
2022-11-12T10:29:00,axn,37.69
2022-11-12T10:30:00,axn,37.80
2022-11-12T10:31:00,axn,32.44
2022-11-12T10:32:00,axn,32.00
2022-11-12T10:33:00,axn,32.26
2022-11-12T10:34:00,axn,31.94
2022-11-12T10:35:00,axn,31.85
2022-11-12T10:36:00,axn,31.91
2022-11-12T10:37:00,axn,31.86
2022-11-12T10:38:00,axn,32.32
2022-11-12T10:39:00,axn,32.40
2022-11-12T10:40:00,axn,32.50
2022-11-12T10:41:00,axn,32.03
2022-11-12T10:42:00,axn,32.11
2022-11-12T10:43:00,axn,32.19
2022-11-12T10:44:00,axn,32.07
2022-11-12T10:45:00,axn,32.16
2022-11-12T10:46:00,axn,32.10
2022-11-12T10:47:00,axn,31.95
2022-11-12T10:48:00,axn,31.90
2022-11-12T10:49:00,axn,31.82
2022-11-12T10:50:00,axn,32.41
2022-11-12T10:51:00,axn,32.04
2022-11-12T10:52:00,axn,32.12
2022-11-12T10:53:00,axn,31.73
2022-11-12T10:54:00,axn,31.96
2022-11-12T10:55:00,axn,31.64
2022-11-12T10:56:00,axn,31.83
2022-11-12T10:57:00,axn,34.56
2022-11-12T10:58:00,axn,34.26
2022-11-12T10:59:00,axn,31.49
2022-11-12T11:00:00,axn,31.71
2022-11-12T11:01:00,axn,31.41
2022-11-12T11:02:00,axn,31.33
2022-11-12T11:03:00,axn,31.22
2022-11-12T11:04:00,axn,31.19
2022-11-12T11:05:00,axn,31.07
2022-11-12T11:06:00,axn,30.76
2022-11-12T11:07:00,axn,30.39
2022-11-12T11:08:00,axn,30.73
2022-11-12T11:09:00,axn,30.98
2022-11-12T11:10:00,axn,30.54
2022-11-12T11:11:00,axn,30.41
2022-11-12T11:12:00,axn,31.15
2022-11-12T11:13:00,axn,30.59
2022-11-12T11:14:00,axn,31.05
2022-11-12T11:15:00,axn,30.79
2022-11-12T11:16:00,axn,30.90
2022-11-12T11:17:00,axn,30.79
2022-11-12T11:18:00,axn,31.37
2022-11-12T11:19:00,axn,30.81
2022-11-12T11:20:00,axn,30.80
2022-11-12T11:21:00,axn,31.27
2022-11-12T11:22:00,axn,30.84
2022-11-12T11:23:00,axn,30.68
2022-11-12T11:24:00,axn,30.96
2022-11-12T11:25:00,axn,30.94
2022-11-12T11:26:00,axn,30.78
2022-11-12T11:27:00,axn,30.80
2022-11-12T11:28:00,axn,30.64
2022-11-12T11:29:00,axn,31.17
2022-11-12T11:30:00,axn,30.84
2022-11-12T11:31:00,axn,30.42
2022-11-12T11:32:00,axn,30.93
2022-11-12T11:33:00,axn,31.07
2022-11-12T11:34:00,axn,30.88
2022-11-12T11:35:00,axn,30.84
2022-11-12T11:36:00,axn,30.86
2022-11-12T11:37:00,axn,35.08
2022-11-12T11:38:00,axn,35.12
2022-11-12T11:39:00,axn,35.16
2022-11-12T11:40:00,axn,31.39
2022-11-12T11:41:00,axn,30.98
2022-11-12T11:42:00,axn,30.99
2022-11-12T11:43:00,axn,31.11
2022-11-12T11:44:00,axn,31.69
2022-11-12T11:45:00,axn,31.87
2022-11-12T11:46:00,axn,31.83
2022-11-12T11:47:00,axn,31.77
2022-11-12T11:48:00,axn,31.71
2022-11-12T11:49:00,axn,31.63
2022-11-12T11:50:00,axn,31.59
2022-11-12T11:51:00,axn,31.85
2022-11-12T11:52:00,axn,32.13
2022-11-12T11:53:00,axn,32.05
2022-11-12T11:54:00,axn,32.18
2022-11-12T11:55:00,axn,31.96
2022-11-12T11:56:00,axn,32.12
2022-11-12T11:57:00,axn,32.06
2022-11-12T11:58:00,axn,31.95
2022-11-12T11:59:00,axn,31.84
2022-11-12T12:00:00,axn,31.93
2022-11-12T12:01:00,axn,31.90
2022-11-12T12:02:00,axn,31.86
2022-11-12T12:03:00,axn,32.26
2022-11-12T12:04:00,axn,31.88
2022-11-12T12:05:00,axn,31.68
2022-11-12T12:06:00,axn,31.82
2022-11-12T12:07:00,axn,31.74
2022-11-12T12:08:00,axn,31.79
2022-11-12T12:09:00,axn,31.98
2022-11-12T12:10:00,axn,31.84
2022-11-12T12:11:00,axn,32.05
2022-11-12T12:12:00,axn,31.71
2022-11-12T12:13:00,axn,31.62
2022-11-12T12:14:00,axn,31.63
2022-11-12T12:15:00,axn,31.61
2022-11-12T12:16:00,axn,31.58
2022-11-12T12:17:00,axn,31.70
2022-11-12T12:18:00,axn,32.10
2022-11-12T12:19:00,axn,32.05
2022-11-12T12:20:00,axn,32.14
2022-11-12T12:21:00,axn,32.42
2022-11-12T12:22:00,axn,32.13
2022-11-12T12:23:00,axn,35.11
2022-11-12T12:24:00,axn,34.59
2022-11-12T12:25:00,axn,34.81
2022-11-12T12:26:00,axn,34.74
2022-11-12T12:27:00,axn,34.62
2022-11-12T12:28:00,axn,34.69
2022-11-12T12:29:00,axn,34.89
2022-11-12T12:30:00,axn,34.97
2022-11-12T12:31:00,axn,34.37
2022-11-12T12:32:00,axn,34.98
2022-11-12T12:33:00,axn,35.71
2022-11-12T12:34:00,axn,34.73
2022-11-12T12:35:00,axn,36.28
2022-11-12T12:36:00,axn,36.10
2022-11-12T12:37:00,axn,35.09
2022-11-12T12:38:00,axn,34.97
2022-11-12T12:39:00,axn,34.92
2022-11-12T12:40:00,axn,34.16
2022-11-12T12:41:00,axn,35.05
2022-11-12T12:42:00,axn,35.18
2022-11-12T12:43:00,axn,35.45
2022-11-12T12:44:00,axn,35.22
2022-11-12T12:45:00,axn,35.39
2022-11-12T12:46:00,axn,35.40
2022-11-12T12:47:00,axn,35.50
2022-11-12T12:48:00,axn,36.16
2022-11-12T12:49:00,axn,35.93
2022-11-12T12:50:00,axn,35.96
2022-11-12T12:51:00,axn,36.01
2022-11-12T12:52:00,axn,36.28
2022-11-12T12:53:00,axn,36.45
2022-11-12T12:54:00,axn,36.55
2022-11-12T12:55:00,axn,36.44
2022-11-12T12:56:00,axn,36.50
2022-11-12T12:57:00,axn,36.80
2022-11-12T12:58:00,axn,36.56
2022-11-12T12:59:00,axn,36.04
2022-11-12T13:00:00,axn,36.00
2022-11-12T13:01:00,axn,36.17
2022-11-12T13:02:00,axn,39.26
2022-11-12T13:03:00,axn,36.58
2022-11-12T13:04:00,axn,36.44
2022-11-12T13:05:00,axn,36.63
2022-11-12T13:06:00,axn,36.81
2022-11-12T13:07:00,axn,36.26
2022-11-12T13:08:00,axn,36.13
2022-11-12T13:09:00,axn,36.05
2022-11-12T13:10:00,axn,36.04
2022-11-12T13:11:00,axn,36.11
2022-11-12T13:12:00,axn,36.08
2022-11-12T13:13:00,axn,38.98
2022-11-12T13:14:00,axn,38.60
2022-11-12T13:15:00,axn,38.61
2022-11-12T13:16:00,axn,36.07
2022-11-12T13:17:00,axn,36.33
2022-11-12T13:18:00,axn,36.43